Regional Weather Roundup
Issued by NWS

Home | Current Version | Previous Version | Graphics & Text | Print | Product List | Glossary On
Versions: 1 2 3 4 5 6 7 8 9 10 11 12 13 14 15 16 17 18 19 20 21 22 23 24 25 26 27 28 29 30 31 32 33 34 35 36 37 38 39 40 41 42 43 44 45 46 47 48 49 50
021
ASUS43 KFSD 241002
RWRSD

WEATHER ROUNDUP FOR SOUTH DAKOTA
NATIONAL WEATHER SERVICE SIOUX FALLS SD
500 AM CDT FRI MAR 24 2017

NOTE: "FAIR" INDICATES FEW OR NO CLOUDS BELOW 12,000 FEET WITH NO
SIGNIFICANT WEATHER AND/OR OBSTRUCTIONS TO VISIBILITY.


SDZ001>005-009-010-012>017-241100-
NORTHWEST AND NORTH CENTRAL SOUTH DAKOTA

CITY           SKY/WX    TMP DP  RH WIND       PRES   REMARKS
BUFFALO          N/A     37  35  92 NW10      29.91S
FAITH            N/A     37  37 100 NW7       29.98R
MOBRIDGE       CLOUDY    37  32  82 NW7       29.94R
$$

SDZ012>016-024>037-041>051-057-063-072>074-241100-
SOUTHWEST AND SOUTH CENTRAL SOUTH DAKOTA

CITY           SKY/WX    TMP DP  RH WIND       PRES   REMARKS
RAPID CTY ARPT CLOUDY    42  37  82 NW8       30.00R
PIERRE         CLOUDY    41  36  82 N14       29.95R
CUSTER         CLOUDY    36  31  82 CALM      29.99R
ELLSWORTH AFB  CLOUDY    42  38  88 NW9       29.99R
PHILIP         MOCLDY    40  37  89 N13       29.98R
PINE RIDGE     CLOUDY    41  38  89 N8        29.99R
SPEARFISH      FAIR      37  36  93 W8        30.01S
WINNER         CLOUDY    42  38  85 NW9       29.92R
$$

SDZ004>011-016>023-039-040-241100-
NORTHEAST SOUTH DAKOTA

CITY           SKY/WX    TMP DP  RH WIND       PRES   REMARKS
ABERDEEN       CLOUDY    35  32  88 N7        29.96R FOG     WCI  29
WATERTOWN      CLOUDY    33  33 100 N10       29.88R FOG     WCI  25
BROOKINGS      CLOUDY    35  34  96 N8        29.85R WCI  29
SISSETON         N/A     34  34 100 N7        29.93R WCI  28
$$

SDZ017-020-022-023-036>040-048>070-241100-
SOUTHEAST SOUTH DAKOTA

CITY           SKY/WX    TMP DP  RH WIND       PRES   REMARKS
SIOUX FALLS    CLOUDY    40  38  93 N12       29.83R
HURON          CLOUDY    37  37 100 N13       29.90R
CHAMBERLAIN    CLOUDY    42  38  85 NW10      29.91R
MITCHELL       CLOUDY    39  38  96 N13       29.88R
YANKTON        CLOUDY    43  39  87 NW16G25   29.81R
$$

ABBREVIATIONS USED IN REMARKS
   TC - TEMPERATURE IN CELSIUS
  WCI - WIND CHILL INDEX
   HX - HEAT INDEX
  VSB - VISIBILITY





USA.gov is the U.S. government's official web portal to all federal, state and local government web resources and services.